CW1620 Weather Reports


Display with metric or nautical units.
time (UTC)temp
F
wind
direction
speed
MPH
gust
MPH
rain 1hr
in
rain 24hr
in
rain mn
in
humidity
%
barometer
mb
20260505003017 65 0.0 0.0 0.00 0.00 0.00 55 1010.1
20260505002036 66 0.0 0.0 0.00 0.00 0.00 54 1010.0
20260505001016 66 0.0 0.0 0.00 0.00 0.00 53 1010.0
20260505000016 67 0.0 0.0 0.00 0.00 0.00 54 1010.0
20260504235015 67 0.0 0.0 0.00 0.00 0.00 51 1010.0
20260504234016 68 0.0 0.0 0.00 0.00 0.00 50 1010.0
20260504233016 69 0.0 0.0 0.00 0.00 0.00 50 1009.9
20260504232016 69 0.0 0.0 0.00 0.00 0.00 51 1010.1
20260504231015 69 0.0 0.0 0.00 0.00 0.00 49 1010.1
20260504230016 70 0.0 0.0 0.00 0.00 0.00 51 1010.0
20260504225018 70 0.0 0.0 0.00 0.00 0.00 49 1009.9
20260504224018 71 0.0 0.0 0.00 0.00 0.00 47 1010.0
20260504223017 72 0.0 0.0 0.00 0.00 0.00 50 1010.0
20260504222018 72 0.0 0.0 0.00 0.00 0.00 46 1010.0
20260504221038 73 0.0 0.0 0.00 0.00 0.00 45 1010.0
20260504220018 73 0.0 0.0 0.00 0.00 0.00 48 1010.0
20260504215017 73 0.0 0.0 0.00 0.00 0.00 46 1010.0
20260504214017 73 0.0 0.0 0.00 0.00 0.00 42 1010.1
20260504213018 73 0.0 0.0 0.00 0.00 0.00 42 1010.1
20260504212018 74 0.0 0.0 0.00 0.00 0.00 44 1010.2
20260504211017 74 0.0 0.0 0.00 0.00 0.00 41 1010.1
20260504210017 75 0.0 0.0 0.00 0.00 0.00 41 1010.2
20260504205017 75 0.0 0.0 0.00 0.00 0.00 41 1010.4
20260504204017 75 0.0 0.0 0.00 0.00 0.00 40 1010.3
20260504203018 75 0.0 0.0 0.00 0.00 0.00 40 1010.3
20260504202017 75 0.0 0.0 0.00 0.00 0.00 39 1010.5
20260504201017 75 0.0 0.0 0.00 0.00 0.00 41 1010.6
20260504200017 74 0.0 0.0 0.00 0.00 0.00 41 1010.9
20260504195017 74 0.0 0.0 0.00 0.00 0.00 40 1011.0
20260504194017 74 0.0 0.0 0.00 0.00 0.00 44 1011.2
20260504193018 74 0.0 0.0 0.00 0.00 0.00 39 1011.4
20260504192017 74 0.0 0.0 0.00 0.00 0.00 39 1011.5
20260504191017 74 0.0 0.0 0.00 0.00 0.00 41 1011.6
20260504190017 74 0.0 0.0 0.00 0.00 0.00 40 1011.7
20260504185017 74 0.0 0.0 0.00 0.00 0.00 39 1011.8
20260504184017 74 0.0 0.0 0.00 0.00 0.00 38 1011.9
20260504183017 74 0.0 0.0 0.00 0.00 0.00 41 1011.9
20260504182017 73 0.0 0.0 0.00 0.00 0.00 40 1012.0
20260504181037 73 0.0 0.0 0.00 0.00 0.00 43 1012.2
20260504180017 73 0.0 0.0 0.00 0.00 0.00 41 1012.4
20260504175017 72 0.0 0.0 0.00 0.00 0.00 42 1012.4
20260504174017 73 0.0 0.0 0.00 0.00 0.00 43 1012.5
20260504173037 72 0.0 0.0 0.00 0.00 0.00 42 1012.7
20260504172017 72 0.0 0.0 0.00 0.00 0.00 43 1012.7
20260504171017 72 0.0 0.0 0.00 0.00 0.00 41 1013.0
20260504151016 67 0.0 0.0 0.00 0.00 0.00 48 1014.4
20260504141016 62 0.0 0.0 0.00 0.00 0.00 58 1014.5
20260504081036 46 0.0 0.0 0.00 0.00 0.00 76 1015.5
20260504050017 48 0.0 0.0 0.00 0.00 0.00 67 1015.6
20260504045017 48 0.0 0.0 0.00 0.00 0.00 63 1015.5
20260504044017 48 0.0 0.0 0.00 0.00 0.00 63 1015.6
20260504043018 48 0.0 0.0 0.00 0.00 0.00 64 1015.5
20260504042017 48 0.0 0.0 0.00 0.00 0.00 65 1015.4
20260504041017 48 0.0 0.0 0.00 0.00 0.00 64 1015.3
20260504040018 48 0.0 0.0 0.00 0.00 0.00 65 1015.2
20260504035036 48 0.0 0.0 0.00 0.00 0.00 63 1015.1
20260504034017 48 0.0 0.0 0.00 0.00 0.00 65 1015.0
20260504033016 48 0.0 0.0 0.00 0.00 0.00 64 1014.9
20260504032036 48 0.0 0.0 0.00 0.00 0.00 64 1015.0
20260504031016 48 0.0 0.0 0.00 0.00 0.00 64 1014.8
20260504030016 48 0.0 0.0 0.00 0.00 0.00 64 1014.9
20260504025016 49 0.0 0.0 0.00 0.00 0.00 63 1014.9
20260504024016 49 0.0 0.0 0.00 0.00 0.00 63 1014.7
20260504023036 49 0.0 0.0 0.00 0.00 0.00 63 1014.7
20260504022016 49 0.0 0.0 0.00 0.00 0.00 63 1014.7
20260504021017 49 0.0 0.0 0.00 0.00 0.00 63 1014.8
20260504020016 49 0.0 0.0 0.00 0.00 0.00 64 1014.7
20260504015016 49 0.0 0.0 0.00 0.00 0.00 64 1014.8
20260504014016 50 0.0 0.0 0.00 0.00 0.00 64 1014.7
20260504013016 50 0.0 0.0 0.00 0.00 0.00 61 1014.6
20260504012017 50 0.0 0.0 0.00 0.00 0.00 62 1014.4
20260504011016 51 0.0 0.0 0.00 0.00 0.00 62 1014.4
20260504010016 51 0.0 0.0 0.00 0.00 0.00 60 1014.4
20260504005016 52 0.0 0.0 0.00 0.00 0.00 58 1014.3
20260504004016 52 0.0 0.0 0.00 0.00 0.00 58 1014.2